TimeCDT,TemperatureF,Dew PointF,Humidity,Sea Level PressureIn,VisibilityMPH,Wind Direction,Wind SpeedMPH,Gust SpeedMPH,PrecipitationIn,Events,Conditions,WindDirDegrees,DateUTC
12:53 AM,53.1,36.0,52,30.00,10.0,West,8.1,-,N/A,,Overcast,260,2013-10-22 05:53:00
1:53 AM,52.0,37.0,57,30.01,10.0,WNW,6.9,-,N/A,,Mostly Cloudy,290,2013-10-22 06:53:00
2:53 AM,50.0,37.0,61,30.03,10.0,WNW,9.2,-,N/A,,Partly Cloudy,300,2013-10-22 07:53:00
3:53 AM,50.0,37.0,61,30.02,10.0,West,6.9,-,N/A,,Clear,280,2013-10-22 08:53:00
4:53 AM,50.0,37.0,61,30.01,10.0,West,9.2,-,N/A,,Clear,280,2013-10-22 09:53:00
5:53 AM,50.0,37.0,61,30.02,10.0,West,9.2,-,N/A,,Clear,280,2013-10-22 10:53:00
6:53 AM,48.9,37.0,64,30.04,10.0,West,9.2,-,N/A,,Clear,270,2013-10-22 11:53:00
7:53 AM,46.9,37.0,68,30.07,10.0,WNW,6.9,-,N/A,,Scattered Clouds,290,2013-10-22 12:53:00
8:53 AM,48.9,37.9,66,30.08,10.0,WNW,6.9,-,N/A,,Clear,290,2013-10-22 13:53:00
9:53 AM,53.1,37.9,57,30.09,10.0,WNW,8.1,-,N/A,,Clear,300,2013-10-22 14:53:00
10:53 AM,59.0,37.9,46,30.08,10.0,NW,13.8,-,N/A,,Clear,320,2013-10-22 15:53:00
11:53 AM,62.1,37.9,41,30.07,10.0,NNW,12.7,25.3,N/A,,Clear,340,2013-10-22 16:53:00
12:53 PM,64.0,37.9,38,30.06,10.0,NNW,16.1,26.5,N/A,,Clear,330,2013-10-22 17:53:00
1:53 PM,64.0,37.0,37,30.05,10.0,NW,15.0,26.5,N/A,,Partly Cloudy,320,2013-10-22 18:53:00
2:53 PM,64.9,37.0,36,30.04,10.0,NW,16.1,26.5,N/A,,Scattered Clouds,320,2013-10-22 19:53:00
3:53 PM,66.0,37.0,34,30.03,10.0,North,19.6,28.8,N/A,,Scattered Clouds,10,2013-10-22 20:53:00
4:53 PM,64.9,37.0,36,30.04,10.0,North,16.1,21.9,N/A,,Mostly Cloudy,350,2013-10-22 21:53:00
5:53 PM,62.1,37.0,39,30.06,10.0,North,12.7,-,N/A,,Mostly Cloudy,360,2013-10-22 22:53:00
6:53 PM,55.9,36.0,47,30.08,10.0,North,9.2,-,N/A,,Clear,360,2013-10-22 23:53:00
7:53 PM,52.0,37.0,57,30.11,10.0,North,4.6,-,N/A,,Overcast,360,2013-10-23 00:53:00
8:53 PM,48.9,36.0,61,30.12,10.0,NNE,4.6,-,N/A,,Clear,20,2013-10-23 01:53:00
9:53 PM,45.0,35.1,68,30.11,10.0,NNE,4.6,-,N/A,,Clear,20,2013-10-23 02:53:00
10:53 PM,46.0,35.1,66,30.11,10.0,South,3.5,-,N/A,,Clear,190,2013-10-23 03:53:00
11:53 PM,44.1,35.1,71,30.12,10.0,WSW,3.5,-,N/A,,Mostly Cloudy,250,2013-10-23 04:53:00